Weather History for Faith, SD

Change the Weather History Date:

Saturday, January 25, 2014

  Actual Average Record
Temperature  
Mean Temperature 43 °F 20 °F  
Max Temperature 52 °F 30 °F 61 °F (2007)
Min Temperature 33 °F 11 °F -2 °F (2004)
Degree Days  
Heating Degree Days 22 45  
Month to date heating degree days 1064 1125  
Since 1 July heating degree days 4384 4268  
Cooling Degree Days 0 0  
Month to date cooling degree days 0 0  
Year to date cooling degree days 0 0  
Moisture  
Dew Point 32 °F    
Average Humidity 69    
Maximum Humidity 89    
Minimum Humidity 48    
Precipitation  
Precipitation 0.00 in 0.01 in 0.87 in (2006)
Month to date precipitation 0.07 0.16  
Year to date precipitation 0.07 0.16  
Sea Level Pressure  
Sea Level Pressure 29.83 in    
Wind  
Wind Speed 20 mph (WNW)    
Max Wind Speed 38 mph    
Max Gust Speed 48 mph    
T = Trace of Precipitation, MM = Missing Value Source: NWS Daily Summary

Daily Weather History Graph

Daily Weather History Graph

Search for Another Location

Airport:

Trip Planner

Search our weather history database for the weather conditions in past years. The results will help you decide how hot, cold, wet, or windy it might be!

Date:

Astronomy

Jan. 25, 2014 Rise Set
Actual Time 7:15 AM MST 4:46 PM MST
Civil Twilight 6:43 AM MST 5:18 PM MST
Nautical Twilight 6:07 AM MST 5:53 PM MST
Astronomical Twilight 5:32 AM MST 6:28 PM MST
Moon 1:48 AM MST (1/25) 11:48 AM MST (1/25)
Length of Visible Light 10h 34m
Length of Day
9h 30m
Waning Crescent, 33% of the Moon is Illuminated
Jan 25
Waning Crescent
Jan 30
New
Feb 6
First Quarter
Feb 14
Full
Feb 22
Last Quarter

Hourly Weather History & Observations

Time (MST) Temp. Windchill Dew Point Humidity Pressure Visibility Wind Dir Wind Speed Gust Speed Precip Events Conditions
12:56 AM 37.9 °F 26.8 °F 32.0 °F 79% 29.99 in - NW 24.2 mph 35.7 mph N/A   Unknown
1:56 AM 37.9 °F 26.6 °F 32.0 °F 79% 30.00 in - NW 25.3 mph 33.4 mph N/A   Unknown
2:56 AM 37.0 °F 25.6 °F 32.0 °F 82% 30.02 in - NNW 24.2 mph 31.1 mph N/A   Unknown
3:56 AM 36.0 °F 25.0 °F 30.9 °F 82% 30.04 in - NNW 20.7 mph - N/A   Unknown
4:56 AM 35.1 °F 24.1 °F 30.9 °F 85% 30.05 in - NNW 19.6 mph 26.5 mph N/A   Unknown
5:56 AM 35.1 °F 25.2 °F 32.0 °F 89% 30.06 in - NNW 16.1 mph - N/A   Unknown
6:56 AM 34.0 °F 29.8 °F 30.9 °F 89% 30.05 in - NNW 4.6 mph - N/A   Unknown
7:56 AM 34.0 °F 27.2 °F 30.9 °F 89% 30.05 in - WNW 8.1 mph - N/A   Unknown
8:56 AM 35.1 °F 30.1 °F 30.9 °F 85% 30.03 in - WSW 5.8 mph - N/A   Unknown
9:56 AM 37.9 °F 30.5 °F 32.0 °F 79% 29.99 in - West 11.5 mph - N/A   Unknown
10:56 AM 39.0 °F 34.0 °F 33.1 °F 79% 29.94 in - WSW 6.9 mph - N/A   Unknown
11:56 AM 41.0 °F 34.3 °F 33.1 °F 73% 29.87 in - SW 11.5 mph - N/A   Unknown
12:56 PM 46.0 °F 40.2 °F 35.1 °F 66% 29.78 in - SW 12.7 mph - N/A   Unknown
1:56 PM 50.0 °F - 33.1 °F 52% 29.70 in - West 19.6 mph 24.2 mph N/A   Unknown
2:56 PM 52.0 °F - 33.1 °F 49% 29.64 in - West 20.7 mph 29.9 mph N/A   Unknown
3:56 PM 51.1 °F - 32.0 °F 48% 29.60 in - West 25.3 mph 34.5 mph N/A   Unknown
4:56 PM 48.0 °F - 32.0 °F 54% 29.60 in - West 18.4 mph - N/A   Unknown
5:56 PM 44.1 °F 37.1 °F 32.0 °F 63% 29.61 in - WNW 15.0 mph - N/A   Unknown
6:56 PM 48.9 °F - 30.0 °F 48% 29.60 in - NW 33.4 mph 43.7 mph N/A   Unknown
7:56 PM 46.9 °F - 30.9 °F 54% 29.62 in - NW 33.4 mph 43.7 mph N/A   Unknown
8:56 PM 45.0 °F 34.4 °F 30.9 °F 58% 29.65 in - NW 35.7 mph 48.3 mph N/A   Unknown
9:56 PM 42.1 °F 31.5 °F 30.9 °F 65% 29.68 in - NW 28.8 mph 38.0 mph N/A   Unknown
10:56 PM 39.9 °F 28.0 °F 30.9 °F 70% 29.70 in - NW 32.2 mph 43.7 mph N/A   Unknown
11:56 PM 37.9 °F 26.1 °F 30.0 °F 73% 29.71 in - NW 27.6 mph 35.7 mph N/A   Unknown